Weather in Peschanoe

Russia / Republic of Crimea     44°50′35″N   33°36′24″E
temp.,
°C
wind,
m/s
gust,
m/s
humid.,
%
clouds,
%
prec.,
mm/h
press.,
hPa
HPBL,
m
5 december, sun
sun500:00+12ssw10129599 2.1 1006664
03:00+8nne999281 2.4 1008393
06:00+8n4586100 0.0 1011515
09:00+8nnw3380100 0.1 1013655
12:00+8wnw2276100 0.1 1014620
15:00+8n327898 0.1 1014429
18:00+8ne327994 0.0 1014253
21:00+8ese12765 0.0 1015154
6 december, mon
mon600:00+10s35765 0.0 1015348
03:00+9ese3476100 0.0 1015181
06:00+10ese2371100 0.0 1014163
09:00+11ese2572100 0.0 1014213
12:00+14s81273100 0.0 1014284
15:00+15sse6107064 0.0 1013128
18:00+14sse6872100 0.0 101496
21:00+14sse5871100 0.0 101480
7 december, tue
tue700:00+14se6969100 0.0 101388
03:00+14se566789 0.0 101260
06:00+14se566322 0.0 101153
09:00+14se4563100 0.0 101140
12:00+15se345827 0.0 100941
15:00+17se33545 0.0 100730
18:00+14n23735 0.0 100622
21:00+13se336726 0.0 100424
8 december, wed
wed800:00+13ese127196 0.0 100311
03:00+13e226476 0.0 100112
06:00+13sse446597 0.0 100134
09:00+13s3475100 0.0 100236
12:00+14s5771100 0.0 1003180
15:00+13s81079100 0.0 1002556
18:00+11sw131592100 1.7 10041003
21:00+10sw111289100 7.4 1007825
9 december, thu
thu900:00+9wsw101182100 1.2 10101099
03:00+9wsw101184100 1.8 1012936
06:00+9wsw101183100 0.4 10141076
09:00+9wsw91076100 0.7 10161130
12:00+9wsw8973100 0.3 10171019
15:00+10wsw786899 0.4 10181173
18:00+10ssw4673100 0.1 1019723
21:00+10s68790 0.1 1019700